Weather History for Lone Rock, WI

Change the Weather History Date:

Saturday, November 16, 2013

  Actual Average Record
Temperature  
Mean Temperature 49 °F -  
Max Temperature 61 °F 43 °F 61 °F (2001)
Min Temperature 37 °F 27 °F 15 °F (2005)
Degree Days  
Heating Degree Days 16    
Moisture  
Dew Point 47 °F    
Average Humidity 88    
Maximum Humidity 94    
Minimum Humidity 76    
Precipitation  
Precipitation 0.16 in - - ()
Sea Level Pressure  
Sea Level Pressure 29.57 in    
Wind  
Wind Speed 10 mph (SSE)    
Max Wind Speed 23 mph    
Max Gust Speed 32 mph    
Visibility 5 miles    
Events Rain , Thunderstorm    
Averages and records for this station are not official NWS values.
T = Trace of Precipitation, MM = Missing Value Source: NWS Daily Summary

Daily Weather History Graph

Daily Weather History Graph

Search for Another Location

Airport:

Trip Planner

Search our weather history database for the weather conditions in past years. The results will help you decide how hot, cold, wet, or windy it might be!

Date:

Astronomy

Nov. 16, 2013 Rise Set
Actual Time 6:55 AM CST 4:35 PM CST
Civil Twilight 6:24 AM CST 5:06 PM CST
Nautical Twilight 5:49 AM CST 5:40 PM CST
Astronomical Twilight 5:16 AM CST 6:14 PM CST
Moon 4:11 PM CST (11/16) 5:50 AM CST (11/16)
Length of Visible Light 10h 41m
Length of Day
9h 40m
Waxing Gibbous, 99% of the Moon is Illuminated
Nov 16
Waxing Gibbous
Nov 17
Full
Nov 25
Last Quarter
Dec 2
New
Dec 9
First Quarter

Hourly Weather History & Observations

Time (CST) Temp. Windchill Dew Point Humidity Pressure Visibility Wind Dir Wind Speed Gust Speed Precip Events Conditions
12:56 AM 41.0 °F 36.4 °F 34.0 °F 76% 29.82 in 10.0 mi SSE 6.9 mph - N/A   Clear
1:56 AM 39.0 °F - 33.1 °F 79% 29.82 in 9.0 mi Calm Calm - N/A   Clear
2:56 AM 37.0 °F 30.4 °F 33.1 °F 86% 29.80 in 8.0 mi East 9.2 mph - N/A   Clear
3:56 AM 37.9 °F 31.5 °F 34.0 °F 86% 29.79 in 8.0 mi East 9.2 mph - N/A   Clear
4:56 AM 39.9 °F 35.1 °F 35.1 °F 83% 29.78 in 8.0 mi ESE 6.9 mph - N/A   Overcast
5:07 AM 39.2 °F 34.2 °F 35.6 °F 87% 29.77 in 8.0 mi ESE 6.9 mph - N/A   Overcast
5:24 AM 41.0 °F 35.8 °F 35.6 °F 81% 29.76 in 8.0 mi ESE 8.1 mph - N/A   Overcast
5:56 AM 41.0 °F 36.4 °F 37.0 °F 86% 29.75 in 7.0 mi ESE 6.9 mph - N/A   Overcast
6:06 AM 42.8 °F 38.0 °F 37.4 °F 81% 29.75 in 6.0 mi SE 8.1 mph - N/A   Haze
6:36 AM 41.0 °F 38.0 °F 37.4 °F 87% 29.74 in 5.0 mi ESE 4.6 mph - N/A   Overcast
6:56 AM 41.0 °F 35.8 °F 39.0 °F 93% 29.73 in 5.0 mi ESE 8.1 mph - N/A   Overcast
7:56 AM 43.0 °F 38.8 °F 41.0 °F 93% 29.71 in 3.0 mi ESE 6.9 mph - N/A   Overcast
8:56 AM 46.0 °F 41.0 °F 43.0 °F 89% 29.70 in 4.0 mi SSE 10.4 mph - N/A   Overcast
9:12 AM 46.4 °F 41.1 °F 44.6 °F 93% 29.70 in 2.0 mi SSE 11.5 mph 17.3 mph N/A   Overcast
9:56 AM 46.9 °F - 45.0 °F 93% 29.68 in 1.5 mi SE 6.9 mph - N/A   Overcast
10:35 AM 48.2 °F - 46.4 °F 93% 29.65 in 2.0 mi SE 10.4 mph - N/A   Overcast
10:56 AM 48.9 °F - 46.0 °F 90% 29.63 in 2.0 mi SSE 11.5 mph - N/A   Overcast
11:07 AM 48.2 °F - 46.4 °F 93% 29.63 in 1.8 mi SSE 12.7 mph 17.3 mph N/A   Overcast
11:18 AM 50.0 °F - 46.4 °F 87% 29.62 in 2.0 mi SSE 10.4 mph - N/A   Overcast
11:44 AM 50.0 °F - 48.2 °F 94% 29.61 in 2.5 mi SSE 11.5 mph 18.4 mph N/A   Overcast
11:56 AM 50.0 °F - 48.0 °F 93% 29.60 in 1.8 mi SSE 13.8 mph - 0.00 in Rain Light Rain
12:56 PM 52.0 °F - 50.0 °F 93% 29.54 in 1.8 mi SSE 15.0 mph - 0.00 in   Overcast
12:58 PM 51.8 °F - 50.0 °F 94% 29.55 in 2.0 mi SSE 15.0 mph 21.9 mph N/A   Overcast
1:07 PM 51.8 °F - 50.0 °F 94% 29.54 in 2.0 mi SSE 15.0 mph 21.9 mph 0.00 in Rain , Thunderstorm Light Rain
1:33 PM 53.6 °F - 51.8 °F 94% 29.53 in 4.0 mi SSE 11.5 mph 20.7 mph 0.02 in Rain , Thunderstorm Light Rain
1:35 PM 53.6 °F - 51.8 °F 94% 29.53 in 4.0 mi SSE 12.7 mph 20.7 mph 0.02 in   Overcast
1:56 PM 54.0 °F - 51.1 °F 90% 29.50 in 4.0 mi SSE 11.5 mph - 0.02 in   Overcast
2:56 PM 55.9 °F - 52.0 °F 87% 29.47 in 5.0 mi South 11.5 mph 20.7 mph 0.01 in Rain Light Rain
3:03 PM 55.4 °F - 51.8 °F 88% 29.46 in 6.0 mi South 15.0 mph 21.9 mph 0.00 in Rain Light Rain
3:11 PM 55.4 °F - 53.6 °F 94% 29.46 in 6.0 mi South 11.5 mph 19.6 mph 0.00 in Thunderstorm Overcast
3:20 PM 55.4 °F - 53.6 °F 94% 29.45 in 1.8 mi SSE 10.4 mph - 0.07 in Rain , Thunderstorm Heavy Thunderstorms and Rain
3:29 PM 55.4 °F - 53.6 °F 94% 29.44 in 2.0 mi South 8.1 mph 17.3 mph 0.08 in Rain , Thunderstorm Light Rain
3:33 PM 55.4 °F - 53.6 °F 94% 29.44 in 3.0 mi SSE 10.4 mph - 0.08 in Rain Light Rain
3:56 PM 55.9 °F - 53.1 °F 90% 29.42 in 4.0 mi SSE 11.5 mph - 0.08 in   Overcast
4:12 PM 57.2 °F - 53.6 °F 88% 29.41 in 2.5 mi South 12.7 mph 23.0 mph 0.00 in Rain Light Rain
4:36 PM 57.2 °F - 53.6 °F 88% 29.41 in 3.0 mi South 15.0 mph 28.8 mph 0.03 in Rain , Thunderstorm Light Thunderstorms and Rain
4:53 PM 57.2 °F - 53.6 °F 88% 29.41 in 5.0 mi South 19.6 mph 29.9 mph 0.03 in Rain Light Rain
4:56 PM 57.9 °F - 54.0 °F 87% 29.40 in 6.0 mi South 18.4 mph 29.9 mph 0.04 in Rain Light Rain
5:11 PM 57.2 °F - 53.6 °F 88% 29.40 in 8.0 mi South 20.7 mph 27.6 mph 0.00 in   Overcast
5:56 PM 59.0 °F - 55.0 °F 87% 29.41 in 7.0 mi South 17.3 mph 32.2 mph 0.01 in Rain Light Rain
6:56 PM 60.1 °F - 55.0 °F 83% 29.40 in 9.0 mi South 23.0 mph 27.6 mph 0.00 in   Overcast
7:56 PM 60.1 °F - 55.0 °F 83% 29.41 in 9.0 mi SSW 21.9 mph 29.9 mph N/A   Overcast
8:56 PM 61.0 °F - 55.0 °F 81% 29.42 in 9.0 mi SSW 19.6 mph 29.9 mph N/A   Overcast
9:56 PM 60.1 °F - 55.0 °F 83% 29.42 in 8.0 mi SSW 17.3 mph 31.1 mph N/A   Mostly Cloudy
10:06 PM 59.0 °F - 55.4 °F 88% 29.44 in 8.0 mi SSW 17.3 mph 26.5 mph N/A   Scattered Clouds
10:56 PM 59.0 °F - 54.0 °F 83% 29.42 in 8.0 mi SSW 13.8 mph 24.2 mph N/A   Partly Cloudy
11:56 PM 59.0 °F - 54.0 °F 83% 29.44 in 9.0 mi SSW 12.7 mph - N/A   Overcast